Year,Month,Day,Hour,Minute,Value (Times are PST for temperature in C)
2007,06,27,00,00,14.50
2007,06,27,00,01,14.90
2007,06,27,00,02,15.30
2007,06,27,00,03,15.70
2007,06,27,00,04,15.90
2007,06,27,00,05,16.10
2007,06,27,00,06,16.20
2007,06,27,00,07,16.30
2007,06,27,00,08,16.40
2007,06,27,00,09,16.50
2007,06,27,00,10,16.60
2007,06,27,00,11,16.80
2007,06,27,00,12,17.00
2007,06,27,00,13,17.10
2007,06,27,00,14,17.20
2007,06,27,00,15,17.30
2007,06,27,00,16,17.40
2007,06,27,00,17,17.40
2007,06,27,00,18,17.50
2007,06,27,00,19,17.70
2007,06,27,00,20,17.70
2007,06,27,00,21,17.80
2007,06,27,00,22,17.80
2007,06,27,00,23,17.80
2007,06,27,00,24,17.80
2007,06,27,00,25,17.80
2007,06,27,00,26,17.90
2007,06,27,00,27,18.00
2007,06,27,00,28,18.10
2007,06,27,00,29,18.10
2007,06,27,00,30,18.20
2007,06,27,00,31,18.20
2007,06,27,00,32,18.10
2007,06,27,00,33,18.10
2007,06,27,00,34,18.10
2007,06,27,00,35,18.00
2007,06,27,00,36,17.90
2007,06,27,00,37,17.80
2007,06,27,00,38,17.80
2007,06,27,00,39,17.80
2007,06,27,00,40,17.70
2007,06,27,00,41,17.60
2007,06,27,00,42,17.60
2007,06,27,00,43,17.50
2007,06,27,00,44,17.40
2007,06,27,00,45,17.40
2007,06,27,00,46,17.30
2007,06,27,00,47,17.20
2007,06,27,00,48,17.10
2007,06,27,00,49,16.90
2007,06,27,00,50,16.80
2007,06,27,00,51,16.70
2007,06,27,00,52,16.60
2007,06,27,00,53,16.50
2007,06,27,00,54,16.50
2007,06,27,00,55,16.40
2007,06,27,00,56,16.30
2007,06,27,00,57,16.30
2007,06,27,00,58,16.20
2007,06,27,00,59,16.10
2007,06,27,01,00,16.00
2007,06,27,01,01,15.90
2007,06,27,01,02,15.80
2007,06,27,01,03,15.70
2007,06,27,01,04,15.60
2007,06,27,01,05,15.50
2007,06,27,01,06,15.40
2007,06,27,01,07,15.20
2007,06,27,01,08,15.20
2007,06,27,01,09,15.10
2007,06,27,01,10,15.00
2007,06,27,01,11,15.00
2007,06,27,01,12,15.00
2007,06,27,01,13,15.00
2007,06,27,01,14,14.90
2007,06,27,01,15,14.80
2007,06,27,01,16,14.80
2007,06,27,01,17,14.80
2007,06,27,01,18,14.80
2007,06,27,01,19,14.80
2007,06,27,01,20,14.80
2007,06,27,01,21,14.70
2007,06,27,01,22,14.70
2007,06,27,01,23,14.70
2007,06,27,01,24,14.60
2007,06,27,01,25,14.60
2007,06,27,01,26,14.60
2007,06,27,01,27,14.50
2007,06,27,01,28,14.40
2007,06,27,01,29,14.30
2007,06,27,01,30,14.30
2007,06,27,01,31,14.20
2007,06,27,01,32,14.20
2007,06,27,01,33,14.10
2007,06,27,01,34,14.10
2007,06,27,01,35,14.00
2007,06,27,01,36,14.00
2007,06,27,01,37,14.00
2007,06,27,01,38,14.00
2007,06,27,01,39,13.90
2007,06,27,01,40,13.90
2007,06,27,01,41,13.90
2007,06,27,01,42,13.80
2007,06,27,01,43,13.80
2007,06,27,01,44,13.80
2007,06,27,01,45,13.70
2007,06,27,01,46,13.60
2007,06,27,01,47,13.60
2007,06,27,01,48,13.50
2007,06,27,01,49,13.50
2007,06,27,01,50,13.40
2007,06,27,01,51,13.40
2007,06,27,01,52,13.30
2007,06,27,01,53,13.30
2007,06,27,01,54,13.30
2007,06,27,01,55,13.30
2007,06,27,01,56,13.30
2007,06,27,01,57,13.30
2007,06,27,01,58,13.20
2007,06,27,01,59,13.20
2007,06,27,02,00,13.20
2007,06,27,02,01,13.10
2007,06,27,02,02,13.10
2007,06,27,02,03,13.00
2007,06,27,02,04,13.00
2007,06,27,02,05,12.90
2007,06,27,02,06,12.90
2007,06,27,02,07,12.90
2007,06,27,02,08,12.80
2007,06,27,02,09,12.80
2007,06,27,02,10,12.80
2007,06,27,02,11,12.70
2007,06,27,02,12,12.70
2007,06,27,02,13,12.70
2007,06,27,02,14,12.70
2007,06,27,02,15,12.80
2007,06,27,02,16,12.80
2007,06,27,02,17,12.90
2007,06,27,02,18,12.90
2007,06,27,02,19,13.00
2007,06,27,02,20,13.00
2007,06,27,02,21,13.10
2007,06,27,02,22,13.10
2007,06,27,02,23,13.10
2007,06,27,02,24,13.10
2007,06,27,02,25,13.00
2007,06,27,02,26,13.00
2007,06,27,02,27,13.00
2007,06,27,02,28,13.00
2007,06,27,02,29,12.90
2007,06,27,02,30,12.90
2007,06,27,02,31,12.90
2007,06,27,02,32,12.90
2007,06,27,02,33,12.90
2007,06,27,02,34,12.90
2007,06,27,02,35,12.90
2007,06,27,02,36,12.90
2007,06,27,02,37,13.00
2007,06,27,02,38,13.00
2007,06,27,02,39,13.00
2007,06,27,02,40,13.00
2007,06,27,02,41,12.90
2007,06,27,02,42,12.90
2007,06,27,02,43,12.90
2007,06,27,02,44,12.80
2007,06,27,02,45,12.80
2007,06,27,02,46,12.80
2007,06,27,02,47,12.70
2007,06,27,02,48,12.70
2007,06,27,02,49,12.60
2007,06,27,02,50,12.50
2007,06,27,02,51,12.50
2007,06,27,02,52,12.40
2007,06,27,02,53,12.30
2007,06,27,02,54,12.20
2007,06,27,02,55,12.20
2007,06,27,02,56,12.10
2007,06,27,02,57,12.00
2007,06,27,02,58,12.00
2007,06,27,02,59,11.90
2007,06,27,03,00,11.80
2007,06,27,03,01,11.80
2007,06,27,03,02,11.70
2007,06,27,03,03,11.70
2007,06,27,03,04,11.60
2007,06,27,03,05,11.60
2007,06,27,03,06,11.50
2007,06,27,03,07,11.40
2007,06,27,03,08,11.30
2007,06,27,03,09,11.30
2007,06,27,03,10,11.20
2007,06,27,03,11,11.20
2007,06,27,03,12,11.10
2007,06,27,03,13,11.10
2007,06,27,03,14,11.10
2007,06,27,03,15,11.00
2007,06,27,03,16,11.00
2007,06,27,03,17,10.90
2007,06,27,03,18,10.90
2007,06,27,03,19,10.80
2007,06,27,03,20,10.80
2007,06,27,03,21,10.80
2007,06,27,03,22,10.80
2007,06,27,03,23,10.80
2007,06,27,03,24,10.70
2007,06,27,03,25,10.70
2007,06,27,03,26,10.70
2007,06,27,03,27,10.70
2007,06,27,03,28,10.70
2007,06,27,03,29,10.60
2007,06,27,03,30,10.60
2007,06,27,03,31,10.60
2007,06,27,03,32,10.60
2007,06,27,03,33,10.60
2007,06,27,03,34,10.50
2007,06,27,03,35,10.50
2007,06,27,03,36,10.40
2007,06,27,03,37,10.40
2007,06,27,03,38,10.40
2007,06,27,03,39,10.40
2007,06,27,03,40,10.40
2007,06,27,03,41,10.40
2007,06,27,03,42,10.40
2007,06,27,03,43,10.30
2007,06,27,03,44,10.30
2007,06,27,03,45,10.30
2007,06,27,03,46,10.30
2007,06,27,03,47,10.30
2007,06,27,03,48,10.30
2007,06,27,03,49,10.30
2007,06,27,03,50,10.30
2007,06,27,03,51,10.20
2007,06,27,03,52,10.20
2007,06,27,03,53,10.20
2007,06,27,03,54,10.20
2007,06,27,03,55,10.20
2007,06,27,03,56,10.20
2007,06,27,03,57,10.20
2007,06,27,03,58,10.20
2007,06,27,03,59,10.20
2007,06,27,04,00,10.20
2007,06,27,04,01,10.20
2007,06,27,04,02,10.20
2007,06,27,04,03,10.20
2007,06,27,04,04,10.20
2007,06,27,04,05,10.20
2007,06,27,04,06,10.20
2007,06,27,04,07,10.10
2007,06,27,04,08,10.10
2007,06,27,04,09,10.10
2007,06,27,04,10,10.10
2007,06,27,04,11,10.00
2007,06,27,04,12,10.00
2007,06,27,04,13,10.00
2007,06,27,04,14,10.00
2007,06,27,04,15,9.90
2007,06,27,04,16,9.90
2007,06,27,04,17,9.90
2007,06,27,04,18,9.80
2007,06,27,04,19,9.80
2007,06,27,04,20,9.80
2007,06,27,04,21,9.80
2007,06,27,04,22,9.80
2007,06,27,04,23,9.80
2007,06,27,04,24,9.80
2007,06,27,04,25,9.70
2007,06,27,04,26,9.70
2007,06,27,04,27,9.70
2007,06,27,04,28,9.70
2007,06,27,04,29,9.70
2007,06,27,04,30,9.70
2007,06,27,04,31,9.70
2007,06,27,04,32,9.70
2007,06,27,04,33,9.70
2007,06,27,04,34,9.70
2007,06,27,04,35,9.60
2007,06,27,04,36,9.60
2007,06,27,04,37,9.60
2007,06,27,04,38,9.60
2007,06,27,04,39,9.60
2007,06,27,04,40,9.60
2007,06,27,04,41,9.60
2007,06,27,04,42,9.60
2007,06,27,04,43,9.60
2007,06,27,04,44,9.60
2007,06,27,04,45,9.60
2007,06,27,04,46,9.60
2007,06,27,04,47,9.60
2007,06,27,04,48,9.60
2007,06,27,04,49,9.60
2007,06,27,04,50,9.60
2007,06,27,04,51,9.60
2007,06,27,04,52,9.60
2007,06,27,04,53,9.60
2007,06,27,04,54,9.50
2007,06,27,04,55,9.50
2007,06,27,04,56,9.50
2007,06,27,04,57,9.50
2007,06,27,04,58,9.50
2007,06,27,04,59,9.50
2007,06,27,05,00,9.50
2007,06,27,05,01,9.50
2007,06,27,05,02,9.50
2007,06,27,05,03,9.50
2007,06,27,05,04,9.50
2007,06,27,05,05,9.50
2007,06,27,05,06,9.50
2007,06,27,05,07,9.50
2007,06,27,05,08,9.50
2007,06,27,05,09,9.50
2007,06,27,05,10,9.50
2007,06,27,05,11,9.50
2007,06,27,05,12,9.50
2007,06,27,05,13,9.40
2007,06,27,05,14,9.40
2007,06,27,05,15,9.40
2007,06,27,05,16,9.40
2007,06,27,05,17,9.40
2007,06,27,05,18,9.40
2007,06,27,05,19,9.40
2007,06,27,05,20,9.40
2007,06,27,05,21,9.40
2007,06,27,05,22,9.40
2007,06,27,05,23,9.40
2007,06,27,05,24,9.40
2007,06,27,05,25,9.40
2007,06,27,05,26,9.40
2007,06,27,05,27,9.40
2007,06,27,05,28,9.40
2007,06,27,05,29,9.40
2007,06,27,05,30,9.40
2007,06,27,05,31,9.40
2007,06,27,05,32,9.40
2007,06,27,05,33,9.40
2007,06,27,05,34,9.40
2007,06,27,05,35,9.40
2007,06,27,05,36,9.40
2007,06,27,05,37,9.40
2007,06,27,05,38,9.40
2007,06,27,05,39,9.40
2007,06,27,05,40,9.40
2007,06,27,05,41,9.40
2007,06,27,05,42,9.40
2007,06,27,05,43,9.40
2007,06,27,05,44,9.40
2007,06,27,05,45,9.40
2007,06,27,05,46,9.30
2007,06,27,05,47,9.30
2007,06,27,05,48,9.30
2007,06,27,05,49,9.30
2007,06,27,05,50,9.30
2007,06,27,05,51,9.30
2007,06,27,05,52,9.40
2007,06,27,05,53,9.40
2007,06,27,05,54,9.40
2007,06,27,05,55,9.40
2007,06,27,05,56,9.40
2007,06,27,05,57,9.40
2007,06,27,05,58,9.40
2007,06,27,05,59,9.40
2007,06,27,06,00,9.40
2007,06,27,06,01,9.40
2007,06,27,06,02,9.50
2007,06,27,06,03,9.50
2007,06,27,06,04,9.50
2007,06,27,06,05,9.50
2007,06,27,06,06,9.50
2007,06,27,06,07,9.60
2007,06,27,06,08,9.60
2007,06,27,06,09,9.60
2007,06,27,06,10,9.60
2007,06,27,06,11,9.60
2007,06,27,06,12,9.60
2007,06,27,06,13,9.70
2007,06,27,06,14,9.70
2007,06,27,06,15,9.70
2007,06,27,06,16,9.70
2007,06,27,06,17,9.80
2007,06,27,06,18,9.80
2007,06,27,06,19,9.80
2007,06,27,06,20,9.80
2007,06,27,06,21,9.80
2007,06,27,06,22,9.90
2007,06,27,06,23,9.90
2007,06,27,06,24,9.90
2007,06,27,06,25,9.90
2007,06,27,06,26,9.90
2007,06,27,06,27,9.90
2007,06,27,06,28,10.00
2007,06,27,06,29,10.00
2007,06,27,06,30,10.00
2007,06,27,06,31,10.00
2007,06,27,06,32,10.10
2007,06,27,06,33,10.10
2007,06,27,06,34,10.10
2007,06,27,06,35,10.10
2007,06,27,06,36,10.10
2007,06,27,06,37,10.10
2007,06,27,06,38,10.20
2007,06,27,06,39,10.20
2007,06,27,06,40,10.20
2007,06,27,06,41,10.20
2007,06,27,06,45,10.30
2007,06,27,06,46,10.30
2007,06,27,06,47,10.30
2007,06,27,06,48,10.40
2007,06,27,06,49,10.40
2007,06,27,06,50,10.40
2007,06,27,06,51,10.50
2007,06,27,06,52,10.50
2007,06,27,06,53,10.60
2007,06,27,06,54,10.60
2007,06,27,06,55,10.60
2007,06,27,06,56,10.70
2007,06,27,06,57,10.70
2007,06,27,06,58,10.70
2007,06,27,06,59,10.70
2007,06,27,07,00,10.80
2007,06,27,07,01,10.80
2007,06,27,07,02,10.80
2007,06,27,07,03,10.80
2007,06,27,07,04,10.80
2007,06,27,07,05,10.90
2007,06,27,07,06,10.90
2007,06,27,07,07,11.00
2007,06,27,07,08,11.00
2007,06,27,07,09,11.10
2007,06,27,07,10,11.10
2007,06,27,07,11,11.20
2007,06,27,07,12,11.20
2007,06,27,07,13,11.20
2007,06,27,07,14,11.30
2007,06,27,07,15,11.30
2007,06,27,07,16,11.30
2007,06,27,07,17,11.40
2007,06,27,07,18,11.40
2007,06,27,07,19,11.50
2007,06,27,07,20,11.60
2007,06,27,07,21,11.60
2007,06,27,07,22,11.60
2007,06,27,07,23,11.70
2007,06,27,07,24,11.70
2007,06,27,07,25,11.80
2007,06,27,07,26,11.80
2007,06,27,07,27,11.90
2007,06,27,07,28,12.00
2007,06,27,07,29,12.10
2007,06,27,07,30,12.20
2007,06,27,07,31,12.30
2007,06,27,07,32,12.30
2007,06,27,07,33,12.40
2007,06,27,07,34,12.50
2007,06,27,07,35,12.60
2007,06,27,07,36,12.70
2007,06,27,07,37,12.80
2007,06,27,07,38,12.90
2007,06,27,07,39,13.10
2007,06,27,07,40,13.20
2007,06,27,07,41,13.30
2007,06,27,07,42,13.30
2007,06,27,07,43,13.40
2007,06,27,07,44,13.50
2007,06,27,07,45,13.60
2007,06,27,07,46,13.60
2007,06,27,07,47,13.70
2007,06,27,07,48,13.80
2007,06,27,07,49,13.90
2007,06,27,07,50,13.90
2007,06,27,07,51,14.00
2007,06,27,07,52,14.10
2007,06,27,07,53,14.20
2007,06,27,07,54,14.20
2007,06,27,07,55,14.30
2007,06,27,07,56,14.40
2007,06,27,07,57,14.40
2007,06,27,07,58,14.50
2007,06,27,07,59,14.60
2007,06,27,08,00,14.70
2007,06,27,08,01,14.80
2007,06,27,08,02,14.80
2007,06,27,08,03,14.90
2007,06,27,08,04,15.00
2007,06,27,08,05,15.00
2007,06,27,08,06,15.00
2007,06,27,08,07,15.00
2007,06,27,08,08,15.00
2007,06,27,08,09,15.10
2007,06,27,08,10,15.20
2007,06,27,08,11,15.30
2007,06,27,08,12,15.40
2007,06,27,08,13,15.50
2007,06,27,08,14,15.60
2007,06,27,08,15,15.70
2007,06,27,08,16,15.80
2007,06,27,08,17,15.90
2007,06,27,08,18,16.00
2007,06,27,08,19,16.10
2007,06,27,08,20,16.20
2007,06,27,08,21,16.30
2007,06,27,08,22,16.40
2007,06,27,08,23,16.40
2007,06,27,08,24,16.50
2007,06,27,08,25,16.60
2007,06,27,08,26,16.70
2007,06,27,08,27,16.70
2007,06,27,08,28,16.80
2007,06,27,08,29,16.80
2007,06,27,08,30,16.90
2007,06,27,08,31,16.90
2007,06,27,08,32,16.90
2007,06,27,08,33,16.90
2007,06,27,08,34,16.90
2007,06,27,08,35,16.90
2007,06,27,08,36,16.90
2007,06,27,08,37,16.90
2007,06,27,08,38,16.90
2007,06,27,08,39,16.90
2007,06,27,08,40,16.80
2007,06,27,08,41,16.70
2007,06,27,08,42,16.70
2007,06,27,08,43,16.70
2007,06,27,08,44,16.70
2007,06,27,08,45,16.60
2007,06,27,08,46,16.60
2007,06,27,08,47,16.60
2007,06,27,08,48,16.60
2007,06,27,08,49,16.70
2007,06,27,08,50,16.70
2007,06,27,08,51,16.70
2007,06,27,08,52,16.70
2007,06,27,08,53,16.70
2007,06,27,08,54,16.70
2007,06,27,08,55,16.70
2007,06,27,08,56,16.70
2007,06,27,08,57,16.60
2007,06,27,08,58,16.50
2007,06,27,08,59,16.50
2007,06,27,09,00,16.40
2007,06,27,09,01,16.40
2007,06,27,09,02,16.40
2007,06,27,09,03,16.40
2007,06,27,09,04,16.40
2007,06,27,09,05,16.30
2007,06,27,09,06,16.30
2007,06,27,09,07,16.30
2007,06,27,09,08,16.20
2007,06,27,09,09,16.20
2007,06,27,09,10,16.20
2007,06,27,09,11,16.10
2007,06,27,09,12,16.10
2007,06,27,09,13,16.10
2007,06,27,09,14,16.00
2007,06,27,09,15,16.00
2007,06,27,09,16,16.00
2007,06,27,09,17,16.00
2007,06,27,09,18,16.10
2007,06,27,09,19,16.10
2007,06,27,09,20,16.10
2007,06,27,09,21,16.10
2007,06,27,09,22,16.20
2007,06,27,09,23,16.20
2007,06,27,09,24,16.20
2007,06,27,09,25,16.20
2007,06,27,09,26,16.20
2007,06,27,09,27,16.20
2007,06,27,09,28,16.20
2007,06,27,09,29,16.20
2007,06,27,09,30,16.20
2007,06,27,09,31,16.20
2007,06,27,09,32,16.20
2007,06,27,09,33,16.20
2007,06,27,09,34,16.20
2007,06,27,09,35,16.20
2007,06,27,09,36,16.20
2007,06,27,09,37,16.30
2007,06,27,09,38,16.30
2007,06,27,09,39,16.30
2007,06,27,09,40,16.40
2007,06,27,09,41,16.40
2007,06,27,09,42,16.50
2007,06,27,09,43,16.50
2007,06,27,09,44,16.60
2007,06,27,09,45,16.70
2007,06,27,09,46,16.80
2007,06,27,09,47,16.80
2007,06,27,09,48,16.90
2007,06,27,09,49,16.90
2007,06,27,09,50,17.00
2007,06,27,09,51,17.00
2007,06,27,09,52,17.00
2007,06,27,09,53,17.00
2007,06,27,09,54,17.00
2007,06,27,09,55,17.10
2007,06,27,09,56,17.10
2007,06,27,09,57,17.20
2007,06,27,09,58,17.30
2007,06,27,09,59,17.30
2007,06,27,10,00,17.40
2007,06,27,10,01,17.40
2007,06,27,10,02,17.40
2007,06,27,10,03,17.50
2007,06,27,10,04,17.60
2007,06,27,10,05,17.60
2007,06,27,10,06,17.70
2007,06,27,10,07,17.60
2007,06,27,10,08,17.60
2007,06,27,10,09,17.70
2007,06,27,10,10,17.70
2007,06,27,10,11,17.70
2007,06,27,10,12,17.80
2007,06,27,10,13,17.80
2007,06,27,10,14,17.90
2007,06,27,10,15,18.00
2007,06,27,10,16,18.10
2007,06,27,10,17,18.10
2007,06,27,10,18,18.20
2007,06,27,10,19,18.20
2007,06,27,10,20,18.20
2007,06,27,10,21,18.20
2007,06,27,10,22,18.30
2007,06,27,10,23,18.30
2007,06,27,10,24,18.30
2007,06,27,10,25,18.30
2007,06,27,10,26,18.30
2007,06,27,10,27,18.30
2007,06,27,10,28,18.30
2007,06,27,10,29,18.40
2007,06,27,10,30,18.40
2007,06,27,10,31,18.50
2007,06,27,10,32,18.70
2007,06,27,10,33,18.80
2007,06,27,10,34,18.90
2007,06,27,10,35,19.00
2007,06,27,10,36,19.10
2007,06,27,10,37,19.20
2007,06,27,10,38,19.10
2007,06,27,10,39,19.10
2007,06,27,10,40,19.00
2007,06,27,10,41,18.90
2007,06,27,10,42,18.90
2007,06,27,10,43,18.80
2007,06,27,10,44,18.80
2007,06,27,10,45,18.80
2007,06,27,10,46,18.90
2007,06,27,10,47,18.90
2007,06,27,10,48,18.90
2007,06,27,10,49,18.90
2007,06,27,10,50,18.90
2007,06,27,10,51,18.90
2007,06,27,10,52,18.80
2007,06,27,10,53,18.80
2007,06,27,10,54,18.90
2007,06,27,10,55,18.90
2007,06,27,10,56,19.00
2007,06,27,10,57,19.10
2007,06,27,10,58,19.10
2007,06,27,10,59,19.20
2007,06,27,11,00,19.20
2007,06,27,11,01,19.30
2007,06,27,11,02,19.50
2007,06,27,11,03,19.60
2007,06,27,11,04,19.60
2007,06,27,11,05,19.50
2007,06,27,11,06,19.40
2007,06,27,11,07,19.40
2007,06,27,11,08,19.40
2007,06,27,11,09,19.60
2007,06,27,11,10,19.80
2007,06,27,11,11,19.90
2007,06,27,11,12,20.00
2007,06,27,11,13,20.20
2007,06,27,11,14,20.20
2007,06,27,11,15,20.30
2007,06,27,11,16,20.30
2007,06,27,11,17,20.40
2007,06,27,11,18,20.50
2007,06,27,11,19,20.60
2007,06,27,11,20,20.70
2007,06,27,11,21,20.80
2007,06,27,11,22,20.80
2007,06,27,11,23,20.90
2007,06,27,11,24,21.00
2007,06,27,11,25,21.00
2007,06,27,11,26,21.00
2007,06,27,11,27,21.00
2007,06,27,11,28,20.90
2007,06,27,11,29,20.90
2007,06,27,11,30,20.80
2007,06,27,11,31,20.90
2007,06,27,11,32,20.90
2007,06,27,11,33,20.90
2007,06,27,11,34,20.80
2007,06,27,11,35,20.60
2007,06,27,11,36,20.30
2007,06,27,11,37,20.10
2007,06,27,11,38,20.00
2007,06,27,11,39,19.90
2007,06,27,11,40,19.90
2007,06,27,11,41,20.00
2007,06,27,11,42,20.00
2007,06,27,11,43,19.90
2007,06,27,11,44,19.80
2007,06,27,11,45,19.80
2007,06,27,11,46,19.80
2007,06,27,11,47,19.80
2007,06,27,11,48,19.80
2007,06,27,11,49,19.90
2007,06,27,11,50,20.00
2007,06,27,11,51,20.00
2007,06,27,11,52,19.90
2007,06,27,11,53,19.90
2007,06,27,11,54,19.80
2007,06,27,11,55,19.80
2007,06,27,11,56,19.80
2007,06,27,11,57,19.80
2007,06,27,11,58,19.90
2007,06,27,11,59,19.80
2007,06,27,12,00,19.80
2007,06,27,12,01,19.80
2007,06,27,12,02,19.80
2007,06,27,12,03,19.80
2007,06,27,12,04,19.90
2007,06,27,12,05,19.90
2007,06,27,12,06,20.00
2007,06,27,12,07,20.00
2007,06,27,12,08,20.00
2007,06,27,12,09,20.10
2007,06,27,12,10,20.00
2007,06,27,12,11,19.90
2007,06,27,12,12,19.80
2007,06,27,12,13,19.70
2007,06,27,12,14,19.60
2007,06,27,12,15,19.60
2007,06,27,12,16,19.60
2007,06,27,12,17,19.70
2007,06,27,12,18,19.70
2007,06,27,12,19,19.80
2007,06,27,12,20,19.90
2007,06,27,12,21,20.00
2007,06,27,12,22,20.00
2007,06,27,12,23,20.10
2007,06,27,12,24,20.20
2007,06,27,12,25,20.30
2007,06,27,12,26,20.40
2007,06,27,12,27,20.60
2007,06,27,12,28,20.60
2007,06,27,12,29,20.50
2007,06,27,12,30,20.60
2007,06,27,12,31,20.70
2007,06,27,12,32,20.80
2007,06,27,12,33,20.70
2007,06,27,12,34,20.60
2007,06,27,12,35,20.60
2007,06,27,12,36,20.50
2007,06,27,12,37,20.40
2007,06,27,12,38,20.30
2007,06,27,12,39,20.30
2007,06,27,12,40,20.20
2007,06,27,12,41,20.20
2007,06,27,12,42,20.10
2007,06,27,12,43,20.10
2007,06,27,12,44,20.20
2007,06,27,12,45,20.30
2007,06,27,12,46,20.40
2007,06,27,12,47,20.40
2007,06,27,12,48,20.50
2007,06,27,12,49,20.50
2007,06,27,12,50,20.40
2007,06,27,12,51,20.30
2007,06,27,12,52,20.30
2007,06,27,12,53,20.40
2007,06,27,12,54,20.40
2007,06,27,12,55,20.50
2007,06,27,12,56,20.60
2007,06,27,12,57,20.60
2007,06,27,12,58,20.60
2007,06,27,12,59,20.70
2007,06,27,13,00,20.70
2007,06,27,13,01,20.70
2007,06,27,13,02,20.60
2007,06,27,13,03,20.60
2007,06,27,13,04,20.60
2007,06,27,13,05,20.60
2007,06,27,13,06,20.60
2007,06,27,13,07,20.50
2007,06,27,13,08,20.50
2007,06,27,13,09,20.40
2007,06,27,13,10,20.30
2007,06,27,13,11,20.20
2007,06,27,13,12,20.20
2007,06,27,13,13,20.20
2007,06,27,13,14,20.30
2007,06,27,13,15,20.40
2007,06,27,13,16,20.40
2007,06,27,13,17,20.40
2007,06,27,13,18,20.40
2007,06,27,13,19,20.40
2007,06,27,13,20,20.40
2007,06,27,13,21,20.40
2007,06,27,13,22,20.40
2007,06,27,13,23,20.40
2007,06,27,13,24,20.40
2007,06,27,13,25,20.40
2007,06,27,13,26,20.50
2007,06,27,13,27,20.60
2007,06,27,13,28,20.70
2007,06,27,13,29,20.70
2007,06,27,13,30,20.80
2007,06,27,13,31,20.80
2007,06,27,13,32,20.90
2007,06,27,13,33,20.90
2007,06,27,13,34,20.90
2007,06,27,13,35,21.00
2007,06,27,13,36,21.10
2007,06,27,13,37,21.10
2007,06,27,13,38,21.20
2007,06,27,13,39,21.10
2007,06,27,13,40,20.90
2007,06,27,13,41,20.70
2007,06,27,13,42,20.70
2007,06,27,13,43,20.60
2007,06,27,13,44,20.60
2007,06,27,13,45,20.50
2007,06,27,13,46,20.40
2007,06,27,13,47,20.40
2007,06,27,13,48,20.50
2007,06,27,13,49,20.60
2007,06,27,13,50,20.60
2007,06,27,13,51,20.60
2007,06,27,13,52,20.50
2007,06,27,13,53,20.40
2007,06,27,13,54,20.40
2007,06,27,13,55,20.40
2007,06,27,13,56,20.50
2007,06,27,13,57,20.60
2007,06,27,13,58,20.60
2007,06,27,13,59,20.70
2007,06,27,14,00,20.60
2007,06,27,14,01,20.60
2007,06,27,14,02,20.60
2007,06,27,14,03,20.70
2007,06,27,14,04,20.70
2007,06,27,14,05,20.70
2007,06,27,14,06,20.70
2007,06,27,14,07,20.70
2007,06,27,14,08,20.70
2007,06,27,14,09,20.70
2007,06,27,14,10,20.70
2007,06,27,14,11,20.80
2007,06,27,14,12,20.80
2007,06,27,14,13,20.80
2007,06,27,14,14,20.80
2007,06,27,14,15,20.60
2007,06,27,14,16,20.50
2007,06,27,14,17,20.30
2007,06,27,14,18,20.20
2007,06,27,14,19,20.20
2007,06,27,14,20,20.00
2007,06,27,14,21,19.90
2007,06,27,14,22,19.90
2007,06,27,14,23,19.90
2007,06,27,14,24,19.90
2007,06,27,14,25,19.80
2007,06,27,14,26,19.80
2007,06,27,14,27,19.80
2007,06,27,14,28,19.90
2007,06,27,14,29,19.90
2007,06,27,14,30,20.00
2007,06,27,14,31,20.00
2007,06,27,14,32,20.10
2007,06,27,14,33,20.20
2007,06,27,14,34,20.10
2007,06,27,14,35,20.00
2007,06,27,14,36,19.90
2007,06,27,14,37,19.90
2007,06,27,14,38,19.80
2007,06,27,14,39,19.80
2007,06,27,14,40,19.80
2007,06,27,14,41,19.70
2007,06,27,14,42,19.70
2007,06,27,14,43,19.70
2007,06,27,14,44,19.80
2007,06,27,14,45,19.80
2007,06,27,14,46,19.90
2007,06,27,14,47,20.00
2007,06,27,14,48,20.00
2007,06,27,14,49,20.10
2007,06,27,14,50,20.10
2007,06,27,14,51,20.10
2007,06,27,14,52,20.10
2007,06,27,14,53,20.10
2007,06,27,14,54,20.10
2007,06,27,14,55,20.10
2007,06,27,14,56,20.00
2007,06,27,14,57,20.00
2007,06,27,14,58,20.00
2007,06,27,14,59,20.10
2007,06,27,15,00,20.10
2007,06,27,15,01,20.10
2007,06,27,15,02,20.10
2007,06,27,15,03,20.00
2007,06,27,15,04,20.10
2007,06,27,15,05,20.10
2007,06,27,15,06,20.10
2007,06,27,15,07,20.20
2007,06,27,15,08,20.20
2007,06,27,15,09,20.30
2007,06,27,15,10,20.30
2007,06,27,15,11,20.40
2007,06,27,15,12,20.50
2007,06,27,15,13,20.40
2007,06,27,15,14,20.40
2007,06,27,15,15,20.50
2007,06,27,15,16,20.60
2007,06,27,15,17,20.60
2007,06,27,15,18,20.60
2007,06,27,15,19,20.70
2007,06,27,15,20,20.80
2007,06,27,15,21,20.80
2007,06,27,15,22,20.90
2007,06,27,15,23,21.10
2007,06,27,15,24,21.20
2007,06,27,15,25,21.30
2007,06,27,15,26,21.30
2007,06,27,15,27,21.30
2007,06,27,15,28,21.20
2007,06,27,15,29,21.20
2007,06,27,15,30,21.10
2007,06,27,15,31,21.00
2007,06,27,15,32,20.90
2007,06,27,15,33,20.80
2007,06,27,15,34,20.80
2007,06,27,15,35,20.70
2007,06,27,15,36,20.70
2007,06,27,15,37,20.80
2007,06,27,15,38,20.80
2007,06,27,15,39,20.80
2007,06,27,15,40,20.90
2007,06,27,15,41,21.00
2007,06,27,15,42,21.00
2007,06,27,15,43,20.90
2007,06,27,15,44,21.00
2007,06,27,15,45,20.90
2007,06,27,15,46,20.90
2007,06,27,15,47,20.90
2007,06,27,15,48,20.80
2007,06,27,15,49,20.80
2007,06,27,15,50,20.80
2007,06,27,15,51,20.80
2007,06,27,15,52,20.80
2007,06,27,15,53,20.70
2007,06,27,15,54,20.60
2007,06,27,15,55,20.60
2007,06,27,15,56,20.60
2007,06,27,15,57,20.60
2007,06,27,15,58,20.60
2007,06,27,15,59,20.60
2007,06,27,16,00,20.70
2007,06,27,16,01,20.70
2007,06,27,16,02,20.70
2007,06,27,16,03,20.80
2007,06,27,16,04,20.80
2007,06,27,16,05,20.90
2007,06,27,16,06,20.90
2007,06,27,16,07,21.00
2007,06,27,16,08,21.10
2007,06,27,16,09,21.10
2007,06,27,16,10,21.20
2007,06,27,16,11,21.20
2007,06,27,16,12,21.20
2007,06,27,16,13,21.20
2007,06,27,16,14,21.20
2007,06,27,16,15,21.20
2007,06,27,16,16,21.20
2007,06,27,16,17,21.20
2007,06,27,16,18,21.20
2007,06,27,16,19,21.20
2007,06,27,16,20,21.20
2007,06,27,16,21,21.20
2007,06,27,16,22,21.20
2007,06,27,16,23,21.20
2007,06,27,16,24,21.20
2007,06,27,16,25,21.20
2007,06,27,16,26,21.30
2007,06,27,16,27,21.30
2007,06,27,16,28,21.40
2007,06,27,16,29,21.40
2007,06,27,16,30,21.40
2007,06,27,16,31,21.40
2007,06,27,16,32,21.30
2007,06,27,16,33,21.30
2007,06,27,16,34,21.20
2007,06,27,16,35,21.10
2007,06,27,16,36,21.00
2007,06,27,16,37,20.90
2007,06,27,16,38,20.90
2007,06,27,16,39,20.80
2007,06,27,16,40,20.70
2007,06,27,16,41,20.60
2007,06,27,16,42,20.50
2007,06,27,16,43,20.40
2007,06,27,16,44,20.30
2007,06,27,16,45,20.30
2007,06,27,16,46,20.30
2007,06,27,16,47,20.40
2007,06,27,16,48,20.40
2007,06,27,16,49,20.40
2007,06,27,16,50,20.50
2007,06,27,16,51,20.50
2007,06,27,16,52,20.50
2007,06,27,16,53,20.50
2007,06,27,16,54,20.50
2007,06,27,16,55,20.60
2007,06,27,16,56,20.60
2007,06,27,16,57,20.60
2007,06,27,16,58,20.50
2007,06,27,16,59,20.50
2007,06,27,17,00,20.50
2007,06,27,17,01,20.50
2007,06,27,17,02,20.40
2007,06,27,17,03,20.40
2007,06,27,17,04,20.40
2007,06,27,17,05,20.40
2007,06,27,17,06,20.40
2007,06,27,17,07,20.50
2007,06,27,17,08,20.50
2007,06,27,17,09,20.60
2007,06,27,17,10,20.60
2007,06,27,17,11,20.70
2007,06,27,17,12,20.80
2007,06,27,17,13,20.70
2007,06,27,17,14,20.70
2007,06,27,17,15,20.70
2007,06,27,17,16,20.60
2007,06,27,17,17,20.50
2007,06,27,17,18,20.50
2007,06,27,17,19,20.50
2007,06,27,17,20,20.40
2007,06,27,17,21,20.30
2007,06,27,17,22,20.30
2007,06,27,17,23,20.20
2007,06,27,17,24,20.20
2007,06,27,17,25,20.20
2007,06,27,17,26,20.20
2007,06,27,17,27,20.20
2007,06,27,17,28,20.20